ECHOSTAR 15

Last updated on Tue Oct 08 2024 00:02:38 GMT+0000 (Coordinated Universal Time)

1 36792U 10034A 24281.31629209 -.00000270 00000+0 00000+0 0 9992 2 36792 0.0447 83.1881 0002511 74.9473 270.5685 1.00272985 52123
UTC large
Height (km)
Speed (km/s)
/
Latitude / Longitude
Inclination (degrees)
Orbital Period (minutes)
Azimuth
Elevation
Range (km)
Doppler Factor

Next 0 passes for location: London (51.5072 / 0.1276)

Sorry there are no passes over London.